TimeMDT,TemperatureF,Dew PointF,Humidity,Sea Level PressureIn,VisibilityMPH,Wind Direction,Wind SpeedMPH,Gust SpeedMPH,PrecipitationIn,Events,Conditions,WindDirDegrees,DateUTC
12:56 AM,66.0,54.0,65,29.86,-9999.0,NNE,9.2,-,N/A,,Unknown,20,2013-08-21 06:56:00
1:56 AM,64.0,54.0,70,29.87,-9999.0,NNE,9.2,-,N/A,,Unknown,20,2013-08-21 07:56:00
2:56 AM,64.0,53.1,67,29.87,-9999.0,NE,6.9,-,N/A,,Unknown,50,2013-08-21 08:56:00
3:56 AM,62.1,53.1,72,29.88,-9999.0,North,9.2,-,N/A,,Unknown,360,2013-08-21 09:56:00
4:56 AM,61.0,53.1,75,29.89,-9999.0,North,8.1,-,N/A,,Unknown,10,2013-08-21 10:56:00
5:56 AM,61.0,54.0,78,29.90,-9999.0,NNE,10.4,-,N/A,,Unknown,20,2013-08-21 11:56:00
6:56 AM,63.0,55.0,75,29.92,-9999.0,North,6.9,-,N/A,,Unknown,10,2013-08-21 12:56:00
7:56 AM,69.1,57.0,65,29.94,-9999.0,NNE,10.4,-,N/A,,Unknown,30,2013-08-21 13:56:00
8:56 AM,73.9,57.9,57,29.94,-9999.0,ENE,16.1,-,N/A,,Unknown,70,2013-08-21 14:56:00
9:56 AM,79.0,57.0,47,29.96,-9999.0,ENE,13.8,-,N/A,,Unknown,70,2013-08-21 15:56:00
10:56 AM,82.9,55.9,39,29.96,-9999.0,East,15.0,20.7,N/A,,Unknown,90,2013-08-21 16:56:00
11:56 AM,86.0,52.0,31,29.97,-9999.0,ESE,15.0,21.9,N/A,,Unknown,120,2013-08-21 17:56:00
12:56 PM,82.9,55.0,38,29.99,-9999.0,SSE,11.5,-,N/A,,Unknown,150,2013-08-21 18:56:00
1:56 PM,79.0,59.0,50,30.02,-9999.0,South,9.2,-,N/A,,Unknown,190,2013-08-21 19:56:00
2:56 PM,77.0,59.0,54,30.01,-9999.0,SSW,6.9,-,N/A,,Unknown,210,2013-08-21 20:56:00
3:56 PM,79.0,55.0,44,30.01,-9999.0,SSE,9.2,-,N/A,,Unknown,160,2013-08-21 21:56:00
4:56 PM,81.0,57.0,44,30.01,-9999.0,SSE,10.4,-,N/A,,Unknown,160,2013-08-21 22:56:00
6:56 PM,75.9,57.0,52,30.00,-9999.0,East,4.6,-,N/A,,Unknown,100,2013-08-22 00:56:00
7:56 PM,70.0,57.9,65,30.01,-9999.0,East,8.1,-,N/A,,Unknown,80,2013-08-22 01:56:00
8:56 PM,71.1,59.0,66,30.02,-9999.0,East,4.6,-,N/A,,Unknown,100,2013-08-22 02:56:00
9:56 PM,71.1,59.0,66,30.03,-9999.0,ESE,4.6,-,N/A,,Unknown,120,2013-08-22 03:56:00
10:56 PM,66.0,59.0,78,30.05,-9999.0,East,6.9,-,N/A,,Unknown,80,2013-08-22 04:56:00
11:56 PM,66.0,57.9,75,30.06,-9999.0,East,6.9,-,N/A,,Unknown,100,2013-08-22 05:56:00